EST,Max TemperatureF,Mean TemperatureF,Min TemperatureF,Max Dew PointF,MeanDew PointF,Min DewpointF,Max Humidity, Mean Humidity, Min Humidity, Max Sea Level PressureIn, Mean Sea Level PressureIn, Min Sea Level PressureIn, Max VisibilityMiles, Mean VisibilityMiles, Min VisibilityMiles, Max Wind SpeedMPH, Mean Wind SpeedMPH, Max Gust SpeedMPH,PrecipitationIn, CloudCover, Events, WindDirDegrees
2012-2-1,59,51,43,41,38,35,76,63,44,30.01,29.92,29.83,10,10,6,12,5,22,0.04,3,Rain,243
2012-2-2,46,38,30,33,28,21,85,64,48,30.22,30.05,29.99,10,10,10,14,5,23,0.00,6,,346
2012-2-3,43,36,28,23,16,8,64,46,28,30.43,30.35,30.23,10,10,10,16,9,23,0.00,1,,329
2012-2-4,46,38,30,27,23,20,64,52,37,30.31,30.20,30.11,10,10,10,10,5,,0.00,3,,315
2012-2-5,37,32,27,21,16,12,72,55,36,30.17,30.14,30.10,10,10,10,14,6,,0.00,0,,358
2012-2-6,46,34,21,33,26,15,75,59,44,30.15,30.03,29.94,10,10,10,12,6,22,0.00,0,,238
2012-2-7,48,38,28,30,25,18,85,56,39,30.24,30.06,29.93,10,10,10,13,5,22,0.00,1,,329
2012-2-8,36,32,28,23,19,12,64,56,38,30.33,30.23,30.07,10,10,10,8,5,,0.00,6,,311
2012-2-9,46,38,26,27,21,16,81,56,29,30.13,30.08,30.04,10,10,10,9,4,17,0.00,0,,307
2012-2-10,44,35,26,36,26,20,79,63,42,30.14,30.04,29.92,10,10,10,10,3,21,0.00,3,,225
2012-2-11,41,37,32,31,27,15,89,70,48,29.91,29.71,29.54,10,7,1,15,6,29,0.00,7,Snow,355
2012-2-12,32,26,19,16,8,-3,54,46,38,29.95,29.79,29.65,10,10,10,20,13,29,0.00,3,,312
2012-2-13,45,36,26,22,17,8,58,45,29,30.01,29.95,29.89,10,10,10,17,10,28,0.00,2,,252
2012-2-14,44,38,33,36,23,15,79,54,36,30.12,30.07,30.02,10,10,10,8,2,,0.00,6,,167
2012-2-15,46,40,35,39,35,27,96,79,56,30.27,30.15,30.08,10,7,0,8,2,,0.00,7,Fog,297
2012-2-16,41,33,27,40,32,22,96,82,63,30.30,30.18,30.04,10,7,3,6,2,,0.10,6,Rain,156
2012-2-17,52,44,35,43,36,23,100,76,39,30.04,29.97,29.89,10,6,1,10,5,18,0.02,6,Rain,239
2012-2-18,46,40,34,35,27,21,89,64,42,30.07,29.99,29.90,10,10,8,12,5,18,0.02,3,Rain,250
2012-2-19,46,38,30,33,25,19,89,62,34,30.08,30.02,29.98,10,10,8,12,4,21,0.00,2,,335
2012-2-20,45,36,25,20,15,9,75,47,26,30.34,30.15,29.99,10,10,10,16,10,24,0.00,2,,343
2012-2-21,43,32,21,38,28,14,100,74,43,30.36,30.12,29.86,10,9,1,13,3,20,0.00,4,Rain,167
2012-2-22,52,42,33,40,35,30,100,83,43,29.86,29.74,29.53,10,6,0,14,2,22,0.00,4,Fog,207
2012-2-23,57,46,35,42,33,23,93,61,30,29.79,29.54,29.38,10,10,7,17,4,31,0.00,2,,289
2012-2-24,42,38,33,39,34,28,97,89,63,29.78,29.58,29.33,10,5,0,14,6,22,1.00,8,Fog-Rain-Snow,45
2012-2-25,45,40,34,33,22,12,70,49,34,29.95,29.58,29.36,10,10,10,18,13,33,0.00,3,,275
2012-2-26,43,36,26,19,13,6,71,40,26,30.45,30.31,29.99,10,10,10,13,8,21,0.00,0,,301
2012-2-27,50,36,23,37,30,18,81,69,56,30.45,30.27,30.06,10,10,10,14,3,20,0.00,3,,206
2012-2-28,50,44,36,31,21,16,52,41,27,30.40,30.30,30.10,10,10,10,14,10,22,0.00,2,,329
2012-2-29,42,38,33,36,30,19,93,76,50,30.39,30.11,29.81,10,6,2,13,5,20,0.22,7,Rain,59